KQ4NAL Weather Reports


Display with metric or nautical units.
time (UTC)temp
F
wind
direction
speed
MPH
gust
MPH
rain 1hr
in
rain 24hr
in
rain mn
in
humidity
%
barometer
mb
20260831015747 72 347 0.0 0.0 0.00 0.00 0.00 93 1019.8
20260831015242 72 348 0.0 0.0 0.00 0.00 0.00 92 1019.9
20260831014737 72 348 0.0 0.0 0.00 0.00 0.00 92 1019.9
20260831014232 72 348 0.0 0.0 0.00 0.00 0.00 92 1019.7
20260831013728 72 347 0.0 0.0 0.00 0.00 0.00 92 1019.7
20260831013227 73 347 0.0 0.0 0.00 0.00 0.00 91 1019.6
20260831012722 73 347 0.0 0.0 0.00 0.00 0.00 91 1019.7
20260831012218 73 347 0.0 0.0 0.00 0.00 0.00 91 1019.4
20260831011717 73 345 0.0 0.0 0.00 0.00 0.00 91 1019.5
20260831011213 73 345 0.0 0.0 0.00 0.00 0.00 91 1019.3
20260831010708 73 345 0.0 0.0 0.00 0.00 0.00 90 1019.3
20260831010209 74 345 0.0 0.0 0.00 0.00 0.00 90 1019.5
20260831005708 74 346 0.0 0.0 0.00 0.00 0.00 90 1019.6
20260831005204 74 346 0.0 0.0 0.00 0.00 0.00 89 1019.2
20260831004659 75 345 0.0 0.0 0.00 0.00 0.00 88 1019.3
20260831004155 75 346 0.0 0.0 0.00 0.00 0.00 87 1019.0
20260831003651 75 346 0.0 0.0 0.00 0.00 0.00 87 1019.2
20260831003147 76 345 0.0 0.0 0.00 0.00 0.00 86 1019.2
20260831002645 77 346 0.0 0.0 0.00 0.00 0.00 85 1019.1
20260831002141 77 346 0.0 0.0 0.00 0.00 0.00 84 1019.1
20260831001636 78 346 0.0 0.0 0.00 0.00 0.00 82 1019.0
20260831001131 78 346 0.0 0.0 0.00 0.00 0.00 82 1019.0
20260831000628 79 346 0.0 0.0 0.00 0.00 0.00 81 1019.0
20260831000123 79 346 0.0 0.0 0.00 0.00 0.00 81 1018.8
20260830235622 79 348 0.0 0.0 0.00 0.00 0.00 80 1018.8
20260830235117 79 348 0.0 0.0 0.00 0.00 0.00 80 1018.9
20260830234612 80 348 0.0 0.0 0.00 0.00 0.00 81 1019.0
20260830234107 80 348 0.0 0.0 0.00 0.00 0.00 79 1018.9
20260830233603 81 349 0.0 0.0 0.00 0.00 0.00 80 1018.8
20260830233058 82 346 0.0 0.0 0.00 0.00 0.00 77 1018.7
20260830232554 84 348 0.0 0.0 0.00 0.00 0.00 71 1018.9
20260830232050 84 345 0.0 0.0 0.00 0.00 0.00 68 1018.8
20260830231545 85 342 0.0 0.0 0.00 0.00 0.00 68 1018.7
20260830231044 85 337 0.0 0.0 0.00 0.00 0.00 63 1018.5
20260830230540 86 329 0.0 0.0 0.00 0.00 0.00 66 1018.6
20260830230035 86 329 0.0 0.0 0.00 0.00 0.00 60 1018.4
20260830225530 86 316 0.0 0.0 0.00 0.00 0.00 59 1018.8
20260830225029 87 223 3.0 6.0 0.00 0.00 0.00 58 1018.5
20260830224527 87 345 0.0 1.0 0.00 0.00 0.00 59 1018.5
20260830224025 88 297 2.0 2.0 0.00 0.00 0.00 59 1018.3
20260830223521 88 194 4.0 5.0 0.00 0.00 0.00 58 1018.5
20260830223015 89 191 5.0 6.0 0.00 0.00 0.00 56 1018.2
20260830222510 87 274 2.0 2.0 0.00 0.00 0.00 59 1018.2
20260830222006 89 7 0.0 0.0 0.00 0.00 0.00 58 1018.3
20260830221502 89 238 4.0 6.0 0.00 0.00 0.00 55 1018.5
20260830220957 90 320 3.0 5.0 0.00 0.00 0.00 53 1018.5
20260830220451 90 342 1.0 2.0 0.00 0.00 0.00 56 1018.5
20260830215949 91 225 4.0 6.0 0.00 0.00 0.00 54 1018.6
20260830215444 91 305 1.0 3.0 0.00 0.00 0.00 52 1018.6
20260830214938 90 336 2.0 2.0 0.00 0.00 0.00 54 1018.7
20260830214434 90 251 5.0 7.0 0.00 0.00 0.00 53 1018.8
20260830213929 90 270 2.0 2.0 0.00 0.00 0.00 54 1018.7
20260830213424 90 187 7.0 7.0 0.00 0.00 0.00 53 1018.7
20260830212920 91 351 2.0 3.0 0.00 0.00 0.00 53 1018.8
20260830212415 90 323 2.0 2.0 0.00 0.00 0.00 51 1018.9
20260830211914 91 350 1.0 1.0 0.00 0.00 0.00 52 1018.9
20260830211409 91 227 4.0 6.0 0.00 0.00 0.00 52 1018.9
20260830210905 91 212 4.0 6.0 0.00 0.00 0.00 52 1019.1
20260830210404 91 324 2.0 2.0 0.00 0.00 0.00 52 1019.1
20260830205901 91 320 1.0 1.0 0.00 0.00 0.00 51 1019.0
20260830205400 90 180 4.0 5.0 0.00 0.00 0.00 54 1019.0
20260830204856 90 229 4.0 6.0 0.00 0.00 0.00 52 1019.0
20260830204354 91 189 2.0 3.0 0.00 0.00 0.00 50 1019.3
20260830203849 92 221 6.0 7.0 0.00 0.00 0.00 50 1019.2
20260830203346 92 333 1.0 2.0 0.00 0.00 0.00 49 1019.3
20260830202845 92 357 2.0 2.0 0.00 0.00 0.00 50 1019.4
20260830202341 90 335 0.0 0.0 0.00 0.00 0.00 49 1019.4
20260830201836 91 309 2.0 2.0 0.00 0.00 0.00 48 1019.5
20260830201330 92 340 2.0 3.0 0.00 0.00 0.00 45 1019.5
20260830200825 91 326 1.0 2.0 0.00 0.00 0.00 48 1019.5
20260830200325 90 320 0.0 0.0 0.00 0.00 0.00 49 1019.6
20260830195820 91 175 4.0 5.0 0.00 0.00 0.00 47 1019.6
20260830195315 93 335 0.0 0.0 0.00 0.00 0.00 46 1019.6
20260830194813 92 349 1.0 1.0 0.00 0.00 0.00 47 1019.7
20260830194312 92 329 3.0 3.0 0.00 0.00 0.00 49 1020.0
20260830193808 91 336 2.0 3.0 0.00 0.00 0.00 48 1020.2
20260830193308 92 334 0.0 0.0 0.00 0.00 0.00 50 1020.1
20260830192804 93 333 0.0 0.0 0.00 0.00 0.00 48 1020.3
20260830192305 93 251 2.0 3.0 0.00 0.00 0.00 50 1020.3
20260830191759 91 320 1.0 1.0 0.00 0.00 0.00 51 1020.4
20260830191258 92 257 2.0 3.0 0.00 0.00 0.00 51 1020.4
20260830190754 91 349 2.0 2.0 0.00 0.00 0.00 52 1020.8
20260830190249 91 323 3.0 3.0 0.00 0.00 0.00 50 1020.6
20260830185748 89 341 0.0 0.0 0.00 0.00 0.00 54 1020.8
20260830185243 87 340 0.0 1.0 0.00 0.00 0.00 55 1020.9
20260830184743 88 349 0.0 1.0 0.00 0.00 0.00 55 1020.8
20260830184242 88 301 3.0 5.0 0.00 0.00 0.00 53 1020.9
20260830183738 91 244 3.0 5.0 0.00 0.00 0.00 50 1021.0
20260830183233 89 328 4.0 5.0 0.00 0.00 0.00 53 1021.1
20260830182733 89 354 2.0 3.0 0.00 0.00 0.00 53 1021.2
20260830182229 92 339 4.0 7.0 0.00 0.00 0.00 51 1021.1
20260830181725 91 349 2.0 3.0 0.00 0.00 0.00 52 1021.3
20260830181220 92 222 2.0 5.0 0.00 0.00 0.00 50 1021.3
20260830180719 91 334 2.0 2.0 0.00 0.00 0.00 50 1021.3
20260830180214 91 234 5.0 7.0 0.00 0.00 0.00 53 1021.2
20260830175714 91 239 3.0 3.0 0.00 0.00 0.00 53 1021.2
20260830175208 92 199 5.0 7.0 0.00 0.00 0.00 50 1021.4
20260830174704 91 344 1.0 2.0 0.00 0.00 0.00 50 1021.3
20260830174200 91 289 2.0 3.0 0.00 0.00 0.00 50 1021.4
20260830173659 91 336 3.0 3.0 0.00 0.00 0.00 49 1021.6
20260830173154 89 347 3.0 5.0 0.00 0.00 0.00 51 1021.7
20260830172651 89 246 4.0 6.0 0.00 0.00 0.00 49 1021.5
20260830172148 91 1 2.0 3.0 0.00 0.00 0.00 52 1021.7
20260830171648 90 321 2.0 2.0 0.00 0.00 0.00 52 1021.6
20260830171142 91 308 5.0 6.0 0.00 0.00 0.00 49 1021.7
20260830170637 90 299 5.0 7.0 0.00 0.00 0.00 52 1021.7
20260830170137 89 245 4.0 5.0 0.00 0.00 0.00 54 1021.5
20260830165631 89 192 4.0 6.0 0.00 0.00 0.00 54 1021.7
20260830165127 89 143 3.0 5.0 0.00 0.00 0.00 53 1021.7
20260830164624 91 295 0.0 1.0 0.00 0.00 0.00 58 1021.6
20260830164119 89 314 2.0 2.0 0.00 0.00 0.00 55 1021.6
20260830163616 88 338 1.0 2.0 0.00 0.00 0.00 57 1021.6
20260830163115 90 311 3.0 5.0 0.00 0.00 0.00 57 1021.7
20260830162610 90 320 3.0 5.0 0.00 0.00 0.00 59 1021.7
20260830162106 89 286 1.0 1.0 0.00 0.00 0.00 64 1021.6
20260830161606 87 347 3.0 3.0 0.00 0.00 0.00 64 1021.7
20260830161101 87 226 3.0 5.0 0.00 0.00 0.00 67 1021.7
20260830160557 86 350 1.0 1.0 0.00 0.00 0.00 68 1021.6
20260830160052 86 351 0.0 2.0 0.00 0.00 0.00 69 1021.9
20260830155548 85 228 2.0 2.0 0.00 0.00 0.00 71 1021.7
20260830155044 85 343 0.0 1.0 0.00 0.00 0.00 69 1021.7
20260830154538 86 181 3.0 5.0 0.00 0.00 0.00 69 1021.7
20260830154035 86 355 3.0 3.0 0.00 0.00 0.00 69 1021.9
20260830153531 85 297 1.0 2.0 0.00 0.00 0.00 71 1022.0
20260830153031 85 255 2.0 2.0 0.00 0.00 0.00 71 1021.9
20260830152526 85 293 1.0 2.0 0.00 0.00 0.00 71 1021.9
20260830152025 83 311 0.0 1.0 0.00 0.00 0.00 74 1021.6
20260830151524 82 322 1.0 1.0 0.00 0.00 0.00 76 1021.7
20260830151020 82 219 5.0 6.0 0.00 0.00 0.00 76 1021.7
20260830150519 82 228 3.0 3.0 0.00 0.00 0.00 76 1021.5
20260830150014 82 249 2.0 3.0 0.00 0.00 0.00 76 1021.2
20260830145513 82 241 3.0 3.0 0.00 0.00 0.00 75 1021.4
20260830145009 83 178 2.0 3.0 0.00 0.00 0.00 73 1021.5
20260830144505 81 334 1.0 2.0 0.00 0.00 0.00 77 1021.3
20260830144000 80 359 1.0 2.0 0.00 0.00 0.00 79 1021.4
20260830143456 80 6 1.0 1.0 0.00 0.00 0.00 77 1021.3
20260830142954 79 191 3.0 3.0 0.00 0.00 0.00 80 1021.3
20260830142449 79 310 0.0 0.0 0.00 0.00 0.00 80 1021.2
20260830141944 79 259 2.0 2.0 0.00 0.00 0.00 79 1021.2
20260830141439 79 199 2.0 5.0 0.00 0.00 0.00 78 1021.1
20260830140934 78 344 0.0 0.0 0.00 0.00 0.00 80 1021.2
20260830140430 78 352 1.0 1.0 0.00 0.00 0.00 80 1020.9
20260830135928 77 338 1.0 1.0 0.00 0.00 0.00 81 1020.9
20260830135424 76 337 2.0 2.0 0.00 0.00 0.00 82 1020.9
20260830134920 76 323 2.0 3.0 0.00 0.00 0.00 83 1020.9
20260830134415 76 292 1.0 2.0 0.00 0.00 0.00 82 1020.8
20260830133911 75 349 0.0 0.0 0.00 0.00 0.00 84 1021.0
20260830133406 75 338 0.0 1.0 0.00 0.00 0.00 84 1021.0
20260830132901 74 145 2.0 2.0 0.00 0.00 0.00 84 1021.1
20260830132357 75 191 3.0 3.0 0.00 0.00 0.00 84 1021.1
20260830131856 75 324 1.0 1.0 0.00 0.00 0.00 86 1021.1
20260830131356 75 350 0.0 0.0 0.00 0.00 0.00 85 1021.1
20260830130851 75 351 0.0 0.0 0.00 0.00 0.00 85 1021.2
20260830130347 74 344 0.0 0.0 0.00 0.00 0.00 86 1021.2
20260830125845 72 351 0.0 0.0 0.00 0.00 0.00 90 1021.2
20260830125341 71 357 0.0 0.0 0.00 0.00 0.00 91 1021.2
20260830124839 70 353 0.0 0.0 0.00 0.00 0.00 93 1021.3
20260830124334 69 352 0.0 0.0 0.00 0.00 0.00 95 1021.3
20260830123830 69 12 0.0 0.0 0.00 0.00 0.00 98 1021.2
20260830123327 68 353 0.0 0.0 0.00 0.00 0.00 99 1021.1
20260830122824 67 1 0.0 0.0 0.00 0.00 0.00 99 1021.0
20260830122319 67 354 0.0 0.0 0.00 0.00 0.00 99 1020.8
20260830121814 67 347 0.0 0.0 0.00 0.00 0.00 99 1021.2
20260830121314 66 341 0.0 0.0 0.00 0.00 0.00 99 1020.9
20260830120808 66 344 0.0 0.0 0.00 0.00 0.00 99 1020.8
20260830120304 65 351 0.0 0.0 0.00 0.00 0.00 99 1020.8
20260830115801 64 346 0.0 0.0 0.00 0.00 0.00 99 1020.8
20260830115256 64 344 0.0 0.0 0.00 0.00 0.00 99 1020.9
20260830114752 63 340 0.0 0.0 0.00 0.00 0.00 99 1020.9
20260830114248 63 341 0.0 0.0 0.00 0.00 0.00 99 1020.8
20260830113743 63 335 0.0 0.0 0.00 0.00 0.00 99 1020.8
20260830113237 63 346 0.0 0.0 0.00 0.00 0.00 99 1020.7
20260830112733 63 349 0.0 0.0 0.00 0.00 0.00 99 1020.8
20260830112230 63 346 0.0 0.0 0.00 0.00 0.00 99 1020.7
20260830111725 63 347 0.0 0.0 0.00 0.00 0.00 99 1020.7
20260830111220 63 348 0.0 0.0 0.00 0.00 0.00 99 1020.6
20260830110720 63 342 0.0 0.0 0.00 0.00 0.00 99 1020.5
20260830110217 62 347 0.0 0.0 0.00 0.00 0.00 99 1020.6
20260830105716 62 346 0.0 0.0 0.00 0.00 0.00 99 1020.6
20260830105212 63 346 0.0 0.0 0.00 0.00 0.00 99 1020.7
20260830104708 64 346 0.0 0.0 0.00 0.00 0.00 99 1020.5
20260830104205 63 349 0.0 0.0 0.00 0.00 0.00 99 1020.6
20260830103704 63 345 0.0 0.0 0.00 0.00 0.00 99 1020.6
20260830103159 63 345 0.0 0.0 0.00 0.00 0.00 99 1020.5
20260830102657 63 345 0.0 0.0 0.00 0.00 0.00 99 1020.6
20260830102154 63 345 0.0 0.0 0.00 0.00 0.00 99 1020.6
20260830101650 64 345 0.0 0.0 0.00 0.00 0.00 99 1020.7
20260830101145 63 345 0.0 0.0 0.00 0.00 0.00 99 1020.4
20260830100645 64 345 0.0 0.0 0.00 0.00 0.00 99 1020.3
20260830100138 64 344 0.0 0.0 0.00 0.00 0.00 99 1020.5
20260830095637 64 343 0.0 0.0 0.00 0.00 0.00 99 1020.5
20260830095134 64 345 0.0 0.0 0.00 0.00 0.00 99 1020.1
20260830094630 64 345 0.0 0.0 0.00 0.00 0.00 99 1020.4
20260830094125 64 345 0.0 0.0 0.00 0.00 0.00 99 1020.2
20260830093620 64 345 0.0 0.0 0.00 0.00 0.00 99 1020.5
20260830093117 64 345 0.0 0.0 0.00 0.00 0.00 99 1020.4
20260830092611 64 345 0.0 0.0 0.00 0.00 0.00 99 1020.4
20260830092109 64 345 0.0 0.0 0.00 0.00 0.00 99 1020.5
20260830091603 64 346 0.0 0.0 0.00 0.00 0.00 99 1020.6
20260830091102 64 345 0.0 0.0 0.00 0.00 0.00 99 1020.3
20260830090557 64 345 0.0 0.0 0.00 0.00 0.00 99 1020.3
20260830090053 64 345 0.0 0.0 0.00 0.00 0.00 99 1020.3
20260830085547 64 345 0.0 0.0 0.00 0.00 0.00 99 1020.4
20260830085043 64 344 0.0 0.0 0.00 0.00 0.00 99 1020.5
20260830084538 64 345 0.0 0.0 0.00 0.00 0.00 99 1020.3
20260830084038 64 346 0.0 0.0 0.00 0.00 0.00 99 1020.4
20260830083534 65 347 0.0 0.0 0.00 0.00 0.00 99 1020.5
20260830083033 65 347 0.0 0.0 0.00 0.00 0.00 99 1020.6
20260830082529 65 347 0.0 0.0 0.00 0.00 0.00 99 1020.3
20260830082024 65 347 0.0 0.0 0.00 0.00 0.00 99 1020.6
20260830081519 65 351 0.0 0.0 0.00 0.00 0.00 99 1020.5
20260830081018 65 350 0.0 0.0 0.00 0.00 0.00 99 1020.5
20260830080514 65 345 0.0 0.0 0.00 0.00 0.00 99 1020.5
20260830080009 65 345 0.0 0.0 0.00 0.00 0.00 99 1020.6
20260830075504 65 345 0.0 0.0 0.00 0.00 0.00 99 1020.4
20260830074959 65 339 0.0 0.0 0.00 0.00 0.00 99 1020.6
20260830074455 65 346 0.0 0.0 0.00 0.00 0.00 99 1020.7
20260830073950 64 346 0.0 0.0 0.00 0.00 0.00 99 1020.6
20260830073446 64 346 0.0 0.0 0.00 0.00 0.00 99 1020.5
20260830072941 64 346 0.0 0.0 0.00 0.00 0.00 99 1020.8
20260830072437 64 346 0.0 0.0 0.00 0.00 0.00 99 1020.6
20260830071936 65 346 0.0 0.0 0.00 0.00 0.00 99 1020.7
20260830071432 64 348 0.0 0.0 0.00 0.00 0.00 99 1020.8
20260830070930 64 345 0.0 0.0 0.00 0.00 0.00 99 1020.8
20260830070425 64 345 0.0 0.0 0.00 0.00 0.00 99 1021.1
20260830065924 64 346 0.0 0.0 0.00 0.00 0.00 99 1020.7
20260830065418 64 346 0.0 0.0 0.00 0.00 0.00 99 1021.0
20260830064916 64 348 0.0 0.0 0.00 0.00 0.00 99 1021.0
20260830064412 64 347 0.0 0.0 0.00 0.00 0.00 99 1020.9
20260830063911 64 347 0.0 0.0 0.00 0.00 0.00 99 1021.1
20260830063406 65 348 0.0 0.0 0.00 0.00 0.00 99 1020.8
20260830062906 65 348 0.0 0.0 0.00 0.00 0.00 99 1021.1
20260830062404 65 346 0.0 0.0 0.00 0.00 0.00 99 1021.0
20260830061900 65 345 0.0 0.0 0.00 0.00 0.00 99 1021.1
20260830061400 65 346 0.0 0.0 0.00 0.00 0.00 99 1021.1
20260830060857 65 343 0.0 0.0 0.00 0.00 0.00 99 1020.9
20260830060354 65 343 0.0 0.0 0.00 0.00 0.00 99 1021.1
20260830055853 65 343 0.0 0.0 0.00 0.00 0.00 99 1021.1
20260830055349 65 343 0.0 0.0 0.00 0.00 0.00 99 1021.2
20260830054845 65 343 0.0 0.0 0.00 0.00 0.00 99 1020.8
20260830054340 65 343 0.0 0.0 0.00 0.00 0.00 99 1021.2
20260830053835 65 347 0.0 0.0 0.00 0.00 0.00 99 1021.0
20260830053330 65 347 0.0 0.0 0.00 0.00 0.00 99 1021.0
20260830052829 65 346 0.0 0.0 0.00 0.00 0.00 99 1020.9
20260830052325 64 344 0.0 0.0 0.00 0.00 0.00 99 1021.1
20260830051821 64 344 0.0 0.0 0.00 0.00 0.00 99 1020.7
20260830051316 64 344 0.0 0.0 0.00 0.00 0.00 99 1021.0
20260830050816 64 344 0.0 0.0 0.00 0.00 0.00 99 1021.0
20260830050311 64 348 0.0 0.0 0.00 0.00 0.00 99 1021.0
20260830045809 65 344 0.0 0.0 0.00 0.00 0.00 99 1020.6
20260830045306 65 344 0.0 0.0 0.00 0.00 0.00 99 1020.9
20260830044803 64 344 0.0 0.0 0.00 0.00 0.00 99 1021.1
20260830044259 64 344 0.0 0.0 0.00 0.00 0.00 99 1021.0
20260830043754 65 344 0.0 0.0 0.00 0.00 0.00 99 1020.9
20260830043253 65 344 0.0 0.0 0.00 0.00 0.00 99 1020.8
20260830042751 65 345 0.0 0.0 0.00 0.00 0.00 99 1021.0
20260830042246 65 345 0.0 0.0 0.00 0.00 0.00 99 1021.0
20260830041745 65 345 0.0 0.0 0.00 0.00 0.00 99 1020.9
20260830041239 65 345 0.0 0.0 0.00 0.00 0.00 99 1020.8
20260830040734 65 345 0.0 0.0 0.00 0.00 0.00 99 1020.8
20260830040231 66 345 0.0 0.0 0.00 0.00 0.00 99 1021.0
20260830035728 66 341 0.0 0.0 0.00 0.00 0.00 99 1021.1
20260830035223 66 347 0.0 0.0 0.00 0.00 0.00 98 1020.9
20260830034719 66 349 0.0 0.0 0.00 0.00 0.00 98 1021.0
20260830034218 65 344 0.0 0.0 0.00 0.00 0.00 98 1021.0
20260830033715 65 343 0.0 0.0 0.00 0.00 0.00 98 1020.9
20260830033209 65 348 0.0 0.0 0.00 0.00 0.00 98 1020.7
20260830032709 66 344 0.0 0.0 0.00 0.00 0.00 98 1020.8
20260830032204 65 347 0.0 0.0 0.00 0.00 0.00 97 1020.7
20260830031659 65 345 0.0 0.0 0.00 0.00 0.00 97 1020.6
20260830031154 66 345 0.0 0.0 0.00 0.00 0.00 97 1020.9
20260830030650 65 345 0.0 0.0 0.00 0.00 0.00 97 1020.7
20260830030146 66 345 0.0 0.0 0.00 0.00 0.00 97 1020.7
20260830025644 67 345 0.0 0.0 0.00 0.00 0.00 97 1020.7
20260830025138 67 346 0.0 0.0 0.00 0.00 0.00 96 1020.8
20260830024634 66 353 0.0 0.0 0.00 0.00 0.00 97 1020.7
20260830024133 66 349 0.0 0.0 0.00 0.00 0.00 96 1020.8
20260830023630 67 343 0.0 0.0 0.00 0.00 0.00 96 1020.4
20260830023125 66 345 0.0 0.0 0.00 0.00 0.00 95 1020.8
20260830022620 67 344 0.0 0.0 0.00 0.00 0.00 95 1020.7
20260830022115 67 345 0.0 0.0 0.00 0.00 0.00 95 1020.7
20260830021614 68 345 0.0 0.0 0.00 0.00 0.00 94 1020.5
20260830021109 67 344 0.0 0.0 0.00 0.00 0.00 94 1020.7
20260830020609 68 344 0.0 0.0 0.00 0.00 0.00 94 1020.7
20260830020104 68 346 0.0 0.0 0.00 0.00 0.00 94 1020.7